Time,TemperatureF,DewpointF,PressureIn,WindDirection,WindDirectionDegrees,WindSpeedMPH,WindSpeedGustMPH,Humidity,HourlyPrecipIn,Conditions,Clouds,dailyrainin,SoftwareType,DateUTC
2015-05-04 00:03:00,66.2,64.7,29.70,SE,135,5.8,5.8,95,0.00,RA,,0.00,WeatherDisplay:10.37,2015-05-03 15:03:00,
2015-05-04 00:09:00,66.1,64.6,29.69,SE,125,8.1,8.1,95,0.00,RA,,0.00,WeatherDisplay:10.37,2015-05-03 15:09:00,
2015-05-04 00:14:00,66.1,64.6,29.70,ESE,110,3.5,3.5,95,0.00,CLR,,0.00,WeatherDisplay:10.37,2015-05-03 15:14:00,
2015-05-04 00:19:00,66.1,64.6,29.69,ESE,113,6.9,6.9,95,0.00,CLR,,0.00,WeatherDisplay:10.37,2015-05-03 15:19:00,
2015-05-04 00:24:00,66.1,64.6,29.69,East,96,6.9,6.9,95,0.00,CLR,,0.00,WeatherDisplay:10.37,2015-05-03 15:24:00,
2015-05-04 00:29:00,66.2,64.7,29.69,ESE,114,5.8,5.8,95,0.00,CLR,,0.00,WeatherDisplay:10.37,2015-05-03 15:29:00,
2015-05-04 00:34:00,66.2,64.7,29.68,ESE,122,4.6,4.6,95,0.00,CLR,,0.00,WeatherDisplay:10.37,2015-05-03 15:34:00,
2015-05-04 00:39:00,66.2,64.7,29.68,East,97,5.0,5.0,95,0.00,CLR,,0.00,WeatherDisplay:10.37,2015-05-03 15:39:00,
2015-05-04 00:44:00,66.2,64.7,29.68,East,100,5.0,5.0,95,0.00,CLR,,0.00,WeatherDisplay:10.37,2015-05-03 15:44:00,
2015-05-04 00:49:00,66.3,64.8,29.68,ESE,114,3.5,3.5,95,0.00,CLR,,0.00,WeatherDisplay:10.37,2015-05-03 15:49:00,
2015-05-04 00:54:00,66.3,64.8,29.68,ESE,106,4.6,4.6,95,0.00,CLR,,0.00,WeatherDisplay:10.37,2015-05-03 15:54:00,
2015-05-04 00:59:00,66.3,64.8,29.68,East,88,5.0,5.0,95,0.00,CLR,,0.00,WeatherDisplay:10.37,2015-05-03 15:59:00,
2015-05-04 01:04:00,66.3,64.8,29.68,ESE,102,4.6,4.6,95,0.00,CLR,,0.00,WeatherDisplay:10.37,2015-05-03 16:04:00,
2015-05-04 01:09:00,66.3,64.8,29.68,East,81,5.0,5.0,95,0.00,CLR,,0.00,WeatherDisplay:10.37,2015-05-03 16:09:00,
2015-05-04 01:14:00,66.3,64.8,29.68,East,91,4.6,4.6,95,0.00,CLR,,0.00,WeatherDisplay:10.37,2015-05-03 16:14:00,
2015-05-04 01:19:00,66.3,64.8,29.68,East,92,1.2,0.0,95,0.00,CLR,,0.00,WeatherDisplay:10.37,2015-05-03 16:19:00,
2015-05-04 01:24:00,66.4,64.9,29.68,East,92,0.0,0.2,95,0.00,CLR,,0.00,WeatherDisplay:10.37,2015-05-03 16:24:00,
2015-05-04 01:29:00,66.4,64.9,29.68,East,93,0.0,0.0,95,0.00,CLR,,0.00,WeatherDisplay:10.37,2015-05-03 16:29:00,
2015-05-04 01:34:00,66.4,64.9,29.68,East,92,0.0,0.0,95,0.00,CLR,,0.00,WeatherDisplay:10.37,2015-05-03 16:34:00,
2015-05-04 01:39:00,66.5,65.0,29.68,WNW,288,5.0,5.0,95,0.00,CLR,,0.00,WeatherDisplay:10.37,2015-05-03 16:39:00,
2015-05-04 01:44:00,66.5,65.0,29.68,WNW,289,3.5,3.5,95,0.00,CLR,,0.00,WeatherDisplay:10.37,2015-05-03 16:44:00,
2015-05-04 01:49:00,66.4,64.9,29.67,WNW,289,0.0,0.0,95,0.00,CLR,,0.00,WeatherDisplay:10.37,2015-05-03 16:49:00,
2015-05-04 01:54:00,66.4,64.9,29.67,WNW,289,0.0,0.0,95,0.00,CLR,,0.00,WeatherDisplay:10.37,2015-05-03 16:54:00,
2015-05-04 01:59:00,66.5,65.0,29.67,WNW,288,1.2,0.0,95,0.00,CLR,,0.00,WeatherDisplay:10.37,2015-05-03 16:59:00,
2015-05-04 02:04:00,66.5,65.0,29.67,WNW,288,0.0,0.0,95,0.00,CLR,,0.00,WeatherDisplay:10.37,2015-05-03 17:04:00,
2015-05-04 02:09:00,66.5,65.0,29.67,WNW,288,0.0,0.0,95,0.00,CLR,,0.00,WeatherDisplay:10.37,2015-05-03 17:09:00,
2015-05-04 02:19:00,66.5,65.0,29.67,WNW,289,1.2,0.0,95,0.00,CLR,,0.00,WeatherDisplay:10.37,2015-05-03 17:19:00,
2015-05-04 02:24:00,66.5,65.0,29.67,WNW,289,0.0,0.0,95,0.00,CLR,,0.00,WeatherDisplay:10.37,2015-05-03 17:24:00,
2015-05-04 02:29:00,66.5,65.3,29.67,WNW,288,0.0,0.0,96,0.00,CLR,,0.00,WeatherDisplay:10.37,2015-05-03 17:29:00,
2015-05-04 02:34:00,66.5,65.3,29.67,WNW,288,0.0,0.0,96,0.00,CLR,,0.00,WeatherDisplay:10.37,2015-05-03 17:34:00,
2015-05-04 02:39:00,66.6,65.4,29.67,WNW,288,0.0,0.2,96,0.00,CLR,,0.00,WeatherDisplay:10.37,2015-05-03 17:39:00,
2015-05-04 02:44:00,66.7,65.5,29.67,WNW,289,3.0,3.0,96,0.00,CLR,,0.00,WeatherDisplay:10.37,2015-05-03 17:44:00,
2015-05-04 02:49:00,66.7,65.5,29.67,WNW,288,0.0,0.1,96,0.00,CLR,,0.00,WeatherDisplay:10.37,2015-05-03 17:49:00,
2015-05-04 02:54:00,66.8,65.6,29.66,WNW,288,1.0,1.0,96,0.00,CLR,,0.00,WeatherDisplay:10.37,2015-05-03 17:54:00,
2015-05-04 02:59:00,66.8,65.6,29.66,WNW,289,2.3,2.3,96,0.00,CLR,,0.00,WeatherDisplay:10.37,2015-05-03 17:59:00,
2015-05-04 03:04:00,66.7,65.5,29.66,WNW,289,2.3,2.3,96,0.00,CLR,,0.00,WeatherDisplay:10.37,2015-05-03 18:04:00,
2015-05-04 03:09:00,66.8,65.6,29.67,WNW,288,1.2,1.2,96,0.00,CLR,,0.00,WeatherDisplay:10.37,2015-05-03 18:09:00,
2015-05-04 03:14:00,66.7,65.5,29.67,WNW,289,3.5,3.5,96,0.00,CLR,,0.00,WeatherDisplay:10.37,2015-05-03 18:14:00,
2015-05-04 03:19:00,66.6,65.4,29.66,WNW,288,3.5,3.5,96,0.00,CLR,,0.00,WeatherDisplay:10.37,2015-05-03 18:19:00,
2015-05-04 03:24:00,66.6,65.4,29.66,WNW,288,3.5,3.5,96,0.00,CLR,,0.00,WeatherDisplay:10.37,2015-05-03 18:24:00,
2015-05-04 03:29:00,66.6,65.4,29.67,WNW,288,1.2,1.2,96,0.00,CLR,,0.00,WeatherDisplay:10.37,2015-05-03 18:29:00,
2015-05-04 03:34:00,66.6,65.4,29.67,WNW,289,0.0,0.0,96,0.00,CLR,,0.00,WeatherDisplay:10.37,2015-05-03 18:34:00,
2015-05-04 03:39:00,66.6,65.4,29.67,WNW,289,0.0,0.0,96,0.00,CLR,,0.00,WeatherDisplay:10.37,2015-05-03 18:39:00,
2015-05-04 03:44:00,66.5,65.3,29.67,WNW,288,0.0,0.0,96,0.00,CLR,,0.00,WeatherDisplay:10.37,2015-05-03 18:44:00,
2015-05-04 03:49:00,66.5,65.3,29.67,WNW,288,0.0,0.0,96,0.00,CLR,,0.00,WeatherDisplay:10.37,2015-05-03 18:49:00,
2015-05-04 03:54:00,66.5,65.3,29.67,WNW,289,0.0,0.0,96,0.00,CLR,,0.00,WeatherDisplay:10.37,2015-05-03 18:54:00,
2015-05-04 03:59:00,66.5,65.3,29.67,WNW,289,0.0,0.0,96,0.00,CLR,,0.00,WeatherDisplay:10.37,2015-05-03 18:59:00,
2015-05-04 04:04:00,66.5,65.3,29.67,WNW,289,0.0,0.0,96,0.00,CLR,,0.01,WeatherDisplay:10.37,2015-05-03 19:04:00,
2015-05-04 04:09:00,66.5,65.3,29.67,WNW,288,0.0,0.0,96,0.01,RA,,0.01,WeatherDisplay:10.37,2015-05-03 19:09:00,
2015-05-04 04:14:00,66.5,65.3,29.67,WNW,289,2.3,2.3,96,0.01,RA,,0.01,WeatherDisplay:10.37,2015-05-03 19:14:00,
2015-05-04 04:19:00,66.5,65.3,29.67,SSW,212,3.5,3.5,96,0.01,CLR,,0.01,WeatherDisplay:10.37,2015-05-03 19:19:00,
2015-05-04 04:24:00,66.4,65.2,29.67,SW,217,7.0,7.0,96,0.02,RA,,0.02,WeatherDisplay:10.37,2015-05-03 19:24:00,
2015-05-04 04:29:00,66.2,65.0,29.67,West,262,8.1,8.1,96,0.02,RA,,0.02,WeatherDisplay:10.37,2015-05-03 19:29:00,
2015-05-04 04:34:00,66.0,64.8,29.67,WSW,241,11.5,11.5,96,0.02,,,0.02,WeatherDisplay:10.37,2015-05-03 19:34:00,
2015-05-04 04:39:00,65.8,64.6,29.67,SW,231,9.2,9.2,96,0.02,CLR,,0.02,WeatherDisplay:10.37,2015-05-03 19:39:00,
2015-05-04 04:44:00,65.8,64.9,29.68,WSW,240,8.1,8.1,97,0.02,CLR,,0.02,WeatherDisplay:10.37,2015-05-03 19:44:00,
2015-05-04 04:49:00,65.8,64.9,29.68,WSW,255,9.2,9.2,97,0.02,RA,,0.02,WeatherDisplay:10.37,2015-05-03 19:49:00,
2015-05-04 04:54:00,65.7,64.8,29.68,West,265,6.9,6.9,97,0.02,RA,,0.02,WeatherDisplay:10.37,2015-05-03 19:54:00,
2015-05-04 05:00:00,65.7,64.5,29.68,WSW,248,2.3,2.3,96,0.02,CLR,,0.02,WeatherDisplay:10.37,2015-05-03 20:00:00,
2015-05-04 05:05:00,65.6,64.4,29.68,SW,232,5.8,5.8,96,0.02,CLR,,0.02,WeatherDisplay:10.37,2015-05-03 20:05:00,
2015-05-04 05:10:00,65.6,64.4,29.68,SW,232,4.0,4.0,96,0.02,CLR,,0.02,WeatherDisplay:10.37,2015-05-03 20:10:00,
2015-05-04 05:15:00,65.4,64.2,29.68,SW,228,2.3,2.3,96,0.02,RA,,0.03,WeatherDisplay:10.37,2015-05-03 20:15:00,
2015-05-04 05:20:00,65.4,64.2,29.68,SW,221,4.6,4.6,96,0.02,RA,,0.03,WeatherDisplay:10.37,2015-05-03 20:20:00,
2015-05-04 05:25:00,65.3,64.4,29.68,SSW,212,3.5,3.5,97,0.02,,,0.03,WeatherDisplay:10.37,2015-05-03 20:25:00,
2015-05-04 05:30:00,65.2,64.3,29.68,SW,226,4.6,4.6,97,0.02,CLR,,0.03,WeatherDisplay:10.37,2015-05-03 20:30:00,
2015-05-04 05:40:00,65.0,64.1,29.68,South,186,8.1,8.1,97,0.02,CLR,,0.03,WeatherDisplay:10.37,2015-05-03 20:40:00,
2015-05-04 05:45:00,64.8,63.6,29.68,SW,218,6.9,6.9,96,0.01,CLR,,0.03,WeatherDisplay:10.37,2015-05-03 20:45:00,
2015-05-04 05:50:00,64.7,63.5,29.69,South,178,9.0,9.0,96,0.01,CLR,,0.03,WeatherDisplay:10.37,2015-05-03 20:50:00,
2015-05-04 05:55:00,64.7,63.8,29.69,SW,218,5.8,5.8,97,0.01,CLR,,0.03,WeatherDisplay:10.37,2015-05-03 20:55:00,
2015-05-04 06:00:00,64.6,63.7,29.69,SW,235,10.4,10.4,97,0.01,CLR,,0.03,WeatherDisplay:10.37,2015-05-03 21:00:00,
2015-05-04 06:05:00,64.6,63.7,29.69,SW,235,6.9,6.9,97,0.01,CLR,,0.03,WeatherDisplay:10.37,2015-05-03 21:05:00,
2015-05-04 06:10:00,64.6,63.7,29.69,SW,220,9.2,9.2,97,0.01,CLR,,0.03,WeatherDisplay:10.37,2015-05-03 21:10:00,
2015-05-04 06:15:00,64.6,63.7,29.69,SW,222,5.8,5.8,97,0.00,CLR,,0.03,WeatherDisplay:10.37,2015-05-03 21:15:00,
2015-05-04 06:20:00,64.5,63.6,29.69,SW,235,5.8,5.8,97,0.00,CLR,,0.03,WeatherDisplay:10.37,2015-05-03 21:20:00,
2015-05-04 06:25:00,64.5,63.6,29.69,WSW,253,4.6,4.6,97,0.00,CLR,,0.03,WeatherDisplay:10.37,2015-05-03 21:25:00,
2015-05-04 06:30:00,64.5,63.6,29.69,WSW,247,5.8,5.8,97,0.00,CLR,,0.03,WeatherDisplay:10.37,2015-05-03 21:30:00,
2015-05-04 06:35:00,64.5,63.6,29.69,SW,233,4.6,4.6,97,0.00,CLR,,0.03,WeatherDisplay:10.37,2015-05-03 21:35:00,
2015-05-04 06:40:00,64.4,63.5,29.69,SW,236,5.8,5.8,97,0.00,CLR,,0.03,WeatherDisplay:10.37,2015-05-03 21:40:00,
2015-05-04 06:45:00,64.3,63.4,29.69,SW,233,4.0,4.0,97,0.00,CLR,,0.03,WeatherDisplay:10.37,2015-05-03 21:45:00,
2015-05-04 06:50:00,64.3,63.4,29.69,SW,216,5.8,5.8,97,0.00,CLR,,0.03,WeatherDisplay:10.37,2015-05-03 21:50:00,
2015-05-04 06:55:00,64.3,63.4,29.70,SW,216,4.6,4.6,97,0.00,CLR,,0.03,WeatherDisplay:10.37,2015-05-03 21:55:00,
2015-05-04 07:00:00,64.3,63.4,29.70,West,262,3.5,3.5,97,0.00,CLR,,0.03,WeatherDisplay:10.37,2015-05-03 22:00:00,
2015-05-04 07:05:00,64.3,63.4,29.70,WSW,237,4.6,4.6,97,0.00,CLR,,0.03,WeatherDisplay:10.37,2015-05-03 22:05:00,
2015-05-04 07:10:00,64.3,63.4,29.70,WSW,250,8.1,8.1,97,0.00,CLR,,0.03,WeatherDisplay:10.37,2015-05-03 22:10:00,
2015-05-04 07:15:00,64.2,63.3,29.70,West,264,5.8,5.8,97,0.00,CLR,,0.03,WeatherDisplay:10.37,2015-05-03 22:15:00,
2015-05-04 07:20:00,64.2,63.3,29.70,West,259,4.0,4.0,97,0.00,CLR,,0.03,WeatherDisplay:10.37,2015-05-03 22:20:00,
2015-05-04 07:25:00,64.1,63.2,29.70,SW,236,6.9,6.9,97,0.00,CLR,,0.03,WeatherDisplay:10.37,2015-05-03 22:25:00,
2015-05-04 07:30:00,64.1,63.2,29.70,WSW,238,11.5,11.5,97,0.00,CLR,,0.03,WeatherDisplay:10.37,2015-05-03 22:30:00,
2015-05-04 07:35:00,63.8,62.9,29.70,SW,222,9.2,9.2,97,0.00,CLR,,0.03,WeatherDisplay:10.37,2015-05-03 22:35:00,
2015-05-04 07:40:00,63.6,62.7,29.70,SW,223,11.5,11.5,97,0.00,CLR,,0.03,WeatherDisplay:10.37,2015-05-03 22:40:00,
2015-05-04 07:45:00,63.6,62.7,29.70,WSW,249,10.4,10.4,97,0.00,CLR,,0.03,WeatherDisplay:10.37,2015-05-03 22:45:00,
2015-05-04 07:50:00,63.6,62.7,29.71,WSW,254,11.5,11.5,97,0.00,CLR,,0.03,WeatherDisplay:10.37,2015-05-03 22:50:00,
2015-05-04 07:55:00,63.7,62.8,29.71,West,269,6.9,6.9,97,0.00,CLR,,0.03,WeatherDisplay:10.37,2015-05-03 22:55:00,
2015-05-04 08:00:00,63.7,62.8,29.71,West,267,6.9,6.9,97,0.00,CLR,,0.03,WeatherDisplay:10.37,2015-05-03 23:00:00,
2015-05-04 08:05:00,63.8,62.9,29.71,West,276,8.1,8.1,97,0.00,CLR,,0.03,WeatherDisplay:10.37,2015-05-03 23:05:00,
2015-05-04 08:10:00,63.8,62.9,29.71,West,280,6.0,6.0,97,0.00,CLR,,0.03,WeatherDisplay:10.37,2015-05-03 23:10:00,
2015-05-04 08:15:00,63.9,63.0,29.71,SSW,205,4.6,4.6,97,0.00,CLR,,0.03,WeatherDisplay:10.37,2015-05-03 23:15:00,
2015-05-04 08:20:00,64.0,63.1,29.72,WSW,238,4.0,4.0,97,0.00,CLR,,0.03,WeatherDisplay:10.37,2015-05-03 23:20:00,
2015-05-04 08:25:00,64.0,63.1,29.72,SSW,208,6.9,6.9,97,0.00,CLR,,0.03,WeatherDisplay:10.37,2015-05-03 23:25:00,
2015-05-04 08:30:00,64.0,62.8,29.72,West,276,9.2,9.2,96,0.00,CLR,,0.03,WeatherDisplay:10.37,2015-05-03 23:30:00,
2015-05-04 08:35:00,64.0,62.8,29.72,West,265,11.5,11.5,96,0.00,CLR,,0.03,WeatherDisplay:10.37,2015-05-03 23:35:00,
2015-05-04 08:40:00,64.1,62.9,29.72,WSW,251,11.5,11.5,96,0.00,CLR,,0.03,WeatherDisplay:10.37,2015-05-03 23:40:00,
2015-05-04 08:45:00,64.1,62.9,29.72,WSW,237,11.5,11.5,96,0.00,CLR,,0.03,WeatherDisplay:10.37,2015-05-03 23:45:00,
2015-05-04 08:50:00,64.1,62.9,29.72,WSW,251,9.2,9.2,96,0.00,CLR,,0.03,WeatherDisplay:10.37,2015-05-03 23:50:00,
2015-05-04 08:55:00,64.1,62.9,29.72,SW,236,12.7,12.7,96,0.00,CLR,,0.03,WeatherDisplay:10.37,2015-05-03 23:55:00,
2015-05-04 09:00:00,64.2,63.0,29.72,SW,234,8.1,8.1,96,0.00,CLR,,0.03,WeatherDisplay:10.37,2015-05-04 00:00:00,
2015-05-04 09:05:00,64.3,63.1,29.72,West,270,4.6,4.6,96,0.00,CLR,,0.03,WeatherDisplay:10.37,2015-05-04 00:05:00,
2015-05-04 09:10:00,64.3,63.1,29.73,West,270,6.0,6.0,96,0.00,CLR,,0.03,WeatherDisplay:10.37,2015-05-04 00:10:00,
2015-05-04 09:15:00,64.4,63.2,29.73,WNW,285,3.5,3.5,96,0.00,CLR,,0.03,WeatherDisplay:10.37,2015-05-04 00:15:00,
2015-05-04 09:20:00,64.4,63.2,29.74,West,270,8.1,8.1,96,0.00,CLR,,0.03,WeatherDisplay:10.37,2015-05-04 00:20:00,
2015-05-04 09:25:00,64.5,63.3,29.74,WSW,243,5.8,5.8,96,0.00,CLR,,0.03,WeatherDisplay:10.37,2015-05-04 00:25:00,
2015-05-04 09:30:00,64.5,63.3,29.74,SSW,195,9.2,9.2,96,0.00,CLR,,0.03,WeatherDisplay:10.37,2015-05-04 00:30:00,
2015-05-04 09:35:00,64.5,63.3,29.74,WNW,285,8.1,8.1,96,0.00,CLR,,0.03,WeatherDisplay:10.37,2015-05-04 00:35:00,
2015-05-04 09:40:00,64.5,63.3,29.75,SW,233,10.4,10.4,96,0.00,CLR,,0.03,WeatherDisplay:10.37,2015-05-04 00:40:00,
2015-05-04 09:45:00,64.6,63.4,29.75,West,264,11.5,11.5,96,0.00,CLR,,0.03,WeatherDisplay:10.37,2015-05-04 00:45:00,
2015-05-04 09:50:00,64.6,63.4,29.75,WSW,258,11.5,11.5,96,0.00,CLR,,0.03,WeatherDisplay:10.37,2015-05-04 00:50:00,
2015-05-04 09:55:00,64.7,63.5,29.75,West,279,10.4,10.4,96,0.00,CLR,,0.03,WeatherDisplay:10.37,2015-05-04 00:55:00,
2015-05-04 10:00:00,64.8,63.3,29.76,WSW,237,12.7,12.7,95,0.00,CLR,,0.03,WeatherDisplay:10.37,2015-05-04 01:00:00,
2015-05-04 10:05:00,64.8,63.3,29.76,WSW,242,10.4,10.4,95,0.00,CLR,,0.03,WeatherDisplay:10.37,2015-05-04 01:05:00,
2015-05-04 10:10:00,64.9,63.7,29.75,SW,219,12.0,12.0,96,0.00,CLR,,0.03,WeatherDisplay:10.37,2015-05-04 01:10:00,
2015-05-04 10:15:00,64.9,63.7,29.75,West,260,13.8,13.8,96,0.00,CLR,,0.03,WeatherDisplay:10.37,2015-05-04 01:15:00,
2015-05-04 10:21:00,64.9,63.7,29.75,SW,236,13.8,13.8,96,0.00,CLR,,0.03,WeatherDisplay:10.37,2015-05-04 01:21:00,
2015-05-04 10:26:00,65.0,63.8,29.74,WSW,257,6.9,6.9,96,0.00,CLR,,0.03,WeatherDisplay:10.37,2015-05-04 01:26:00,
2015-05-04 10:31:00,65.0,63.8,29.74,SSW,201,8.1,8.1,96,0.00,CLR,,0.03,WeatherDisplay:10.37,2015-05-04 01:31:00,
2015-05-04 10:36:00,65.1,63.9,29.74,WNW,285,9.2,9.2,96,0.00,CLR,,0.03,WeatherDisplay:10.37,2015-05-04 01:36:00,
2015-05-04 10:41:00,65.2,64.0,29.74,WSW,238,9.2,9.2,96,0.00,CLR,,0.03,WeatherDisplay:10.37,2015-05-04 01:41:00,
2015-05-04 10:46:00,65.2,63.7,29.74,West,266,8.0,8.0,95,0.00,CLR,,0.03,WeatherDisplay:10.37,2015-05-04 01:46:00,
2015-05-04 10:51:00,65.3,63.8,29.74,WSW,252,11.5,11.5,95,0.00,CLR,,0.03,WeatherDisplay:10.37,2015-05-04 01:51:00,
2015-05-04 10:56:00,65.2,63.7,29.75,WSW,247,17.3,17.3,95,0.00,CLR,,0.03,WeatherDisplay:10.37,2015-05-04 01:56:00,
2015-05-04 11:01:00,65.2,63.7,29.74,West,278,8.1,8.1,95,0.00,CLR,,0.03,WeatherDisplay:10.37,2015-05-04 02:01:00,
2015-05-04 11:06:00,65.3,63.8,29.74,SW,228,8.1,8.1,95,0.00,CLR,,0.03,WeatherDisplay:10.37,2015-05-04 02:06:00,
2015-05-04 11:11:00,65.5,64.0,29.74,South,189,9.2,9.2,95,0.00,CLR,,0.03,WeatherDisplay:10.37,2015-05-04 02:11:00,
2015-05-04 11:16:00,65.8,64.3,29.74,WSW,244,8.1,8.1,95,0.00,CLR,,0.03,WeatherDisplay:10.37,2015-05-04 02:16:00,
2015-05-04 11:21:00,65.7,63.9,29.74,SW,221,16.1,16.1,94,0.00,CLR,,0.03,WeatherDisplay:10.37,2015-05-04 02:21:00,
2015-05-04 11:26:00,66.0,64.2,29.74,SW,226,11.5,11.5,94,0.00,CLR,,0.03,WeatherDisplay:10.37,2015-05-04 02:26:00,
2015-05-04 11:31:00,66.2,64.1,29.73,SW,228,15.0,15.0,93,0.00,CLR,,0.03,WeatherDisplay:10.37,2015-05-04 02:31:00,
2015-05-04 11:36:00,66.5,64.4,29.73,SW,218,12.7,12.7,93,0.00,CLR,,0.03,WeatherDisplay:10.37,2015-05-04 02:36:00,
2015-05-04 11:41:00,66.7,64.3,29.73,WSW,249,12.7,12.7,92,0.00,CLR,,0.03,WeatherDisplay:10.37,2015-05-04 02:41:00,
2015-05-04 11:46:00,67.3,64.9,29.73,SW,227,6.9,6.9,92,0.00,CLR,,0.03,WeatherDisplay:10.37,2015-05-04 02:46:00,
2015-05-04 11:51:00,67.8,65.1,29.72,SW,231,8.1,8.1,91,0.00,CLR,,0.03,WeatherDisplay:10.37,2015-05-04 02:51:00,
2015-05-04 11:56:00,68.0,64.6,29.72,WNW,287,10.4,10.4,89,0.00,CLR,,0.03,WeatherDisplay:10.37,2015-05-04 02:56:00,
2015-05-04 12:01:00,68.6,65.5,29.71,South,177,9.2,9.2,90,0.00,CLR,,0.03,WeatherDisplay:10.37,2015-05-04 03:01:00,
2015-05-04 12:06:00,69.3,65.6,29.71,SSW,210,9.2,9.2,88,0.00,CLR,,0.03,WeatherDisplay:10.37,2015-05-04 03:06:00,
2015-05-04 12:11:00,69.8,65.8,29.71,West,259,8.0,8.0,87,0.00,CLR,,0.03,WeatherDisplay:10.37,2015-05-04 03:11:00,
2015-05-04 12:16:00,70.0,65.6,29.71,West,274,11.5,11.5,86,0.00,CLR,,0.03,WeatherDisplay:10.37,2015-05-04 03:16:00,
2015-05-04 12:21:00,69.8,64.7,29.71,West,274,13.8,13.8,84,0.00,CLR,,0.03,WeatherDisplay:10.37,2015-05-04 03:21:00,
2015-05-04 12:26:00,69.7,65.0,29.72,NW,312,10.4,10.4,85,0.00,CLR,,0.03,WeatherDisplay:10.37,2015-05-04 03:26:00,
2015-05-04 12:31:00,70.1,65.0,29.72,WNW,302,13.0,13.0,84,0.00,CLR,,0.03,WeatherDisplay:10.37,2015-05-04 03:31:00,
2015-05-04 12:36:00,70.0,64.9,29.72,SW,223,11.5,11.5,84,0.00,CLR,,0.03,WeatherDisplay:10.37,2015-05-04 03:36:00,
2015-05-04 12:41:00,70.3,65.6,29.71,West,268,11.5,11.5,85,0.00,CLR,,0.03,WeatherDisplay:10.37,2015-05-04 03:41:00,
2015-05-04 12:46:00,70.2,64.8,29.72,WNW,283,13.8,13.8,83,0.00,CLR,,0.03,WeatherDisplay:10.37,2015-05-04 03:46:00,
2015-05-04 12:51:00,70.1,65.0,29.72,West,261,12.7,12.7,84,0.00,CLR,,0.03,WeatherDisplay:10.37,2015-05-04 03:51:00,
2015-05-04 12:56:00,70.3,65.2,29.72,WSW,245,13.0,13.0,84,0.00,CLR,,0.03,WeatherDisplay:10.37,2015-05-04 03:56:00,
2015-05-04 13:01:00,70.0,64.6,29.72,West,270,12.0,12.0,83,0.00,CLR,,0.03,WeatherDisplay:10.37,2015-05-04 04:01:00,
2015-05-04 13:06:00,69.9,64.8,29.72,WSW,252,13.8,13.8,84,0.00,CLR,,0.03,WeatherDisplay:10.37,2015-05-04 04:06:00,
2015-05-04 13:11:00,69.5,64.1,29.72,WNW,282,12.7,12.7,83,0.00,CLR,,0.03,WeatherDisplay:10.37,2015-05-04 04:11:00,
2015-05-04 13:16:00,69.5,64.5,29.72,SW,218,11.5,11.5,84,0.00,CLR,,0.03,WeatherDisplay:10.37,2015-05-04 04:16:00,
2015-05-04 13:21:00,69.3,63.9,29.72,WNW,285,16.1,16.1,83,0.00,CLR,,0.03,WeatherDisplay:10.37,2015-05-04 04:21:00,
2015-05-04 13:26:00,69.4,64.4,29.72,SSW,202,11.5,11.5,84,0.00,CLR,,0.03,WeatherDisplay:10.37,2015-05-04 04:26:00,
2015-05-04 13:31:00,69.4,64.0,29.72,WSW,239,15.0,15.0,83,0.00,CLR,,0.03,WeatherDisplay:10.37,2015-05-04 04:31:00,
2015-05-04 13:36:00,69.3,63.9,29.71,SW,232,11.5,11.5,83,0.00,CLR,,0.03,WeatherDisplay:10.37,2015-05-04 04:36:00,
2015-05-04 13:41:00,69.5,64.5,29.71,WSW,251,15.0,15.0,84,0.00,CLR,,0.03,WeatherDisplay:10.37,2015-05-04 04:41:00,
2015-05-04 13:46:00,69.6,64.5,29.72,SW,233,15.0,15.0,84,0.00,CLR,,0.03,WeatherDisplay:10.37,2015-05-04 04:46:00,
2015-05-04 13:51:00,70.2,64.8,29.71,SW,220,12.0,12.0,83,0.00,CLR,,0.03,WeatherDisplay:10.37,2015-05-04 04:51:00,
2015-05-04 13:56:00,70.0,64.2,29.71,SW,236,12.7,12.7,82,0.00,CLR,,0.03,WeatherDisplay:10.37,2015-05-04 04:56:00,
2015-05-04 14:01:00,70.2,64.8,29.71,WSW,246,12.0,12.0,83,0.00,CLR,,0.03,WeatherDisplay:10.37,2015-05-04 05:01:00,
2015-05-04 14:06:00,70.1,64.3,29.71,WSW,245,11.5,11.5,82,0.00,CLR,,0.03,WeatherDisplay:10.37,2015-05-04 05:06:00,
2015-05-04 14:11:00,69.8,64.4,29.71,SW,231,9.2,9.2,83,0.00,CLR,,0.03,WeatherDisplay:10.37,2015-05-04 05:11:00,
2015-05-04 14:16:00,70.1,64.7,29.71,WSW,241,10.0,10.0,83,0.00,CLR,,0.03,WeatherDisplay:10.37,2015-05-04 05:16:00,
2015-05-04 14:21:00,70.6,64.8,29.70,SSW,212,9.2,9.2,82,0.00,CLR,,0.03,WeatherDisplay:10.37,2015-05-04 05:21:00,
2015-05-04 14:26:00,70.7,64.6,29.70,WSW,241,12.7,12.7,81,0.00,CLR,,0.03,WeatherDisplay:10.37,2015-05-04 05:26:00,
2015-05-04 14:31:00,70.5,64.4,29.70,SW,232,13.8,13.8,81,0.00,CLR,,0.03,WeatherDisplay:10.37,2015-05-04 05:31:00,
2015-05-04 14:36:00,70.2,64.4,29.70,WNW,283,13.8,13.8,82,0.00,CLR,,0.03,WeatherDisplay:10.37,2015-05-04 05:36:00,
2015-05-04 14:41:00,70.4,64.6,29.70,WSW,247,12.0,12.0,82,0.00,CLR,,0.03,WeatherDisplay:10.37,2015-05-04 05:41:00,
2015-05-04 14:46:00,70.6,64.8,29.69,WSW,247,10.4,10.4,82,0.00,CLR,,0.03,WeatherDisplay:10.37,2015-05-04 05:46:00,
2015-05-04 14:51:00,70.9,64.4,29.70,SSW,197,15.0,15.0,80,0.00,CLR,,0.03,WeatherDisplay:10.37,2015-05-04 05:51:00,
2015-05-04 14:56:00,71.1,64.6,29.70,West,264,10.4,10.4,80,0.00,CLR,,0.03,WeatherDisplay:10.37,2015-05-04 05:56:00,
2015-05-04 15:01:00,71.0,64.2,29.70,SW,224,16.1,16.1,79,0.00,CLR,,0.03,WeatherDisplay:10.37,2015-05-04 06:01:00,
2015-05-04 15:06:00,70.8,64.3,29.70,SW,219,11.5,11.5,80,0.00,CLR,,0.03,WeatherDisplay:10.37,2015-05-04 06:06:00,
2015-05-04 15:11:00,70.8,64.3,29.70,SSW,198,11.5,11.5,80,0.00,CLR,,0.03,WeatherDisplay:10.37,2015-05-04 06:11:00,
2015-05-04 15:16:00,70.8,64.0,29.70,SW,214,12.7,12.7,79,0.00,CLR,,0.03,WeatherDisplay:10.37,2015-05-04 06:16:00,
2015-05-04 15:21:00,70.9,64.1,29.71,SSE,149,10.4,10.4,79,0.00,CLR,,0.03,WeatherDisplay:10.37,2015-05-04 06:21:00,
2015-05-04 15:26:00,70.1,63.3,29.71,West,276,11.5,11.5,79,0.00,CLR,,0.03,WeatherDisplay:10.37,2015-05-04 06:26:00,
2015-05-04 15:31:00,69.4,63.0,29.72,SSW,199,15.0,15.0,80,0.00,CLR,,0.03,WeatherDisplay:10.37,2015-05-04 06:31:00,
2015-05-04 15:36:00,69.2,63.1,29.71,SW,228,15.0,15.0,81,0.00,CLR,,0.03,WeatherDisplay:10.37,2015-05-04 06:36:00,
2015-05-04 15:41:00,68.5,62.4,29.71,SW,232,16.0,16.0,81,0.00,CLR,,0.03,WeatherDisplay:10.37,2015-05-04 06:41:00,
2015-05-04 15:46:00,68.4,62.7,29.71,West,270,16.1,16.1,82,0.00,CLR,,0.03,WeatherDisplay:10.37,2015-05-04 06:46:00,
2015-05-04 15:51:00,68.5,62.8,29.71,SSW,210,16.1,16.1,82,0.00,CLR,,0.03,WeatherDisplay:10.37,2015-05-04 06:51:00,
2015-05-04 15:56:00,68.6,62.5,29.71,SW,219,16.1,16.1,81,0.00,CLR,,0.03,WeatherDisplay:10.37,2015-05-04 06:56:00,
2015-05-04 16:01:00,68.8,62.7,29.71,SSW,202,12.7,12.7,81,0.00,CLR,,0.03,WeatherDisplay:10.37,2015-05-04 07:01:00,
2015-05-04 16:07:00,68.8,62.7,29.71,SW,236,13.8,13.8,81,0.00,CLR,,0.03,WeatherDisplay:10.37,2015-05-04 07:07:00,
2015-05-04 16:12:00,68.7,62.3,29.71,West,267,15.0,15.0,80,0.00,CLR,,0.03,WeatherDisplay:10.37,2015-05-04 07:12:00,
2015-05-04 16:17:00,68.9,62.8,29.72,SW,222,15.0,15.0,81,0.00,CLR,,0.03,WeatherDisplay:10.37,2015-05-04 07:17:00,
2015-05-04 16:22:00,68.9,62.1,29.72,WSW,237,11.5,11.5,79,0.00,CLR,,0.03,WeatherDisplay:10.37,2015-05-04 07:22:00,
2015-05-04 16:27:00,68.8,62.4,29.72,SW,231,11.5,11.5,80,0.00,CLR,,0.03,WeatherDisplay:10.37,2015-05-04 07:27:00,
2015-05-04 16:32:00,68.9,62.1,29.72,WSW,247,12.7,12.7,79,0.00,CLR,,0.03,WeatherDisplay:10.37,2015-05-04 07:32:00,
2015-05-04 16:37:00,68.9,61.8,29.72,SW,227,12.0,12.0,78,0.00,CLR,,0.03,WeatherDisplay:10.37,2015-05-04 07:37:00,
2015-05-04 16:42:00,68.8,62.0,29.72,SSW,200,11.5,11.5,79,0.00,CLR,,0.03,WeatherDisplay:10.37,2015-05-04 07:42:00,
2015-05-04 16:47:00,69.2,62.0,29.72,SSW,212,10.4,10.4,78,0.00,CLR,,0.03,WeatherDisplay:10.37,2015-05-04 07:47:00,
2015-05-04 16:52:00,69.6,62.1,29.72,WSW,248,6.9,6.9,77,0.00,CLR,,0.03,WeatherDisplay:10.37,2015-05-04 07:52:00,
2015-05-04 16:57:00,69.7,61.8,29.72,SW,235,10.4,10.4,76,0.00,CLR,,0.03,WeatherDisplay:10.37,2015-05-04 07:57:00,
2015-05-04 17:02:00,69.6,61.3,29.72,WNW,301,11.5,11.5,75,0.00,CLR,,0.03,WeatherDisplay:10.37,2015-05-04 08:02:00,
2015-05-04 17:07:00,69.6,61.7,29.72,WSW,241,4.6,4.6,76,0.00,CLR,,0.03,WeatherDisplay:10.37,2015-05-04 08:07:00,
2015-05-04 17:12:00,69.9,62.0,29.72,SW,222,11.5,11.5,76,0.00,CLR,,0.03,WeatherDisplay:10.37,2015-05-04 08:12:00,
2015-05-04 17:17:00,69.8,61.5,29.72,West,262,11.5,11.5,75,0.00,CLR,,0.03,WeatherDisplay:10.37,2015-05-04 08:17:00,
2015-05-04 17:22:00,69.2,61.3,29.72,WSW,249,8.1,8.1,76,0.00,CLR,,0.03,WeatherDisplay:10.37,2015-05-04 08:22:00,
2015-05-04 17:27:00,68.9,60.6,29.72,SW,227,11.5,11.5,75,0.00,CLR,,0.03,WeatherDisplay:10.37,2015-05-04 08:27:00,
2015-05-04 17:32:00,68.3,60.1,29.72,WSW,237,15.0,15.0,75,0.00,CLR,,0.03,WeatherDisplay:10.37,2015-05-04 08:32:00,